Location: ???????????
(54.6970°N, 39.1477°E)
Time: 10:20:44
(UTC+00:00)

Meteor 2-4 Rocket - Pass Details

Date: 19 May 2025
Orbit: 799 x 906 km, 81.2° (Epoch: 12 June)

Event Time Altitude Azimuth Distance (km) Brightness Sun altitude
Exits shadow 20:48:52 22° 183° (S) 1,789 4.8 -15.0°
Maximum altitude 20:52:38 77° 101° (E) 905 3.8 -15.1°
Drops below altitude 10° 20:58:29 10° 16° (NNE) 2,572 7.3 -15.2°
Sets 21:00:58 0° 15° (NNE) 3,527 8.3 -15.2°
